User: anonymous   Login
Location: Newsoms
(36.6240°N, 77.1250°W)
Time: 23:07:45
(UTC-05:00)
Language:

BREEZE-M DEB (TANK) - Orbit

View from above orbital plane
View from above orbital plane
View from above satellite
View from above satellite

Ground track
Ground track

The orbit data is extracted from the following two-line orbital elements,

1 29649U 06056B   17344.31870484 +.00001021 +00000-0 +14081-3 0  9992
2 29649 049.4901 104.8555 5390526 271.5442 030.5142 04.99966907196596
Epoch (UTC): 10 December 2017 07:38:56
Eccentricity: 0.5390526
inclination: 49.4901°
perigee height: 281 km
apogee height: 15856 km
right ascension of ascending node: 104.8555°
argument of perigee: 271.5442°
revolutions per day: 4.99966907
mean anomaly at epoch: 30.5142°
orbit number at epoch: 19659

The dashed part of the orbit path shows where the satellite is in the earth's shadow,  

DLR